Total_Precipitation_Accumulation
1.85 1.85 1.86 1.90 1.84 1.90 1.90 1.80 1.55 1.34 1.19 1.03 0.91 0.96 1.08 1.08 1.20 1.29 1.50 1.55 1.45 1.61 1.96 2.23 2.22 2.22 2.16 2.07 1.96 1.87 1.79 1.74 1.57 1.36 1.10 0.95 0.87 0.78 0.73 0.70 0.67 0.65 0.63
2.19 2.18 2.28 2.26 2.04 2.03 2.10 2.12 1.96 1.74 1.47 1.28 1.12 1.07 1.08 1.09 1.23 1.41 1.59 1.71 1.67 1.60 1.92 2.33 2.48 2.55 2.50 2.45 2.31 2.10 1.96 1.86 1.78 1.61 1.43 1.22 1.08 0.97 0.90 0.82 0.76 0.70 0.67
2.51 2.49 2.61 2.59 2.27 2.15 2.26 2.36 2.29 2.14 1.77 1.51 1.43 1.39 1.35 1.38 1.38 1.51 1.69 1.80 1.80 1.76 1.89 2.02 2.17 2.31 2.41 2.48 2.47 2.34 2.17 1.98 1.85 1.73 1.68 1.57 1.39 1.21 1.08 1.01 0.95 0.86 0.76
2.57 2.64 2.58 2.43 2.34 2.39 2.59 2.75 2.67 2.57 2.31 2.06 1.91 1.69 1.54 1.54 1.50 1.65 1.70 1.75 2.00 1.97 1.91 1.75 1.83 2.00 2.20 2.46 2.62 2.62 2.53 2.32 2.07 1.90 1.82 1.75 1.59 1.37 1.19 1.11 1.08 1.01 0.91
2.69 2.82 2.86 2.80 2.72 2.74 2.79 2.72 2.86 2.71 2.73 2.55 2.12 1.89 1.71 1.65 1.72 1.77 1.81 1.82 1.93 2.04 2.00 1.84 1.77 1.85 1.95 2.21 2.40 2.63 2.71 2.63 2.39 2.16 2.01 1.92 1.77 1.59 1.42 1.30 1.20 1.08 1.00
3.03 3.10 3.09 3.14 3.18 3.22 3.06 2.98 2.94 2.77 2.66 2.56 2.23 2.06 1.92 1.79 1.76 1.74 1.68 1.69 1.76 1.74 1.81 1.83 1.87 1.76 1.81 1.90 2.06 2.40 2.73 2.78 2.71 2.52 2.34 2.22 2.02 1.77 1.57 1.45 1.35 1.27 1.18
3.58 3.58 3.61 3.59 3.46 3.39 3.24 3.05 2.89 2.80 2.61 2.40 2.33 2.06 1.76 1.56 1.49 1.45 1.48 1.54 1.51 1.49 1.58 1.75 1.82 1.77 1.67 1.63 1.74 2.12 2.61 2.85 2.82 2.66 2.51 2.42 2.20 1.93 1.72 1.57 1.48 1.38 1.30
4.23 4.04 3.97 3.79 3.50 3.33 3.21 3.01 2.85 2.71 2.47 2.29 2.26 2.23 1.87 1.61 1.35 1.19 1.26 1.27 1.30 1.41 1.49 1.46 1.47 1.44 1.41 1.41 1.43 1.67 1.89 2.11 2.31 2.46 2.50 2.39 2.26 2.11 1.93 1.82 1.75 1.68 1.58
4.32 4.02 3.74 3.58 3.39 3.21 3.05 2.97 2.83 2.70 2.50 2.33 2.22 2.32 2.20 1.93 1.55 1.37 1.26 1.27 1.32 1.36 1.35 1.29 1.23 1.20 1.24 1.28 1.36 1.46 1.61 1.75 1.91 2.08 2.23 2.24 2.15 2.06 2.01 1.97 1.96 1.99 1.99
3.97 3.54 3.32 3.31 3.16 2.96 2.78 2.59 2.44 2.37 2.32 2.24 2.19 2.06 2.01 1.93 1.80 1.63 1.47 1.45 1.46 1.43 1.36 1.30 1.34 1.36 1.34 1.41 1.42 1.35 1.35 1.39 1.54 1.66 1.84 1.94 1.92 1.88 1.91 2.03 2.18 2.31 2.33
3.42 3.14 2.94 2.97 2.88 2.62 2.38 2.16 1.95 1.88 1.88 1.95 1.96 1.92 1.85 1.79 1.63 1.55 1.54 1.48 1.45 1.42 1.34 1.29 1.30 1.35 1.35 1.30 1.28 1.29 1.32 1.29 1.38 1.45 1.54 1.70 1.79 1.86 1.91 2.02 2.15 2.25 2.34
2.86 2.59 2.33 2.20 2.09 1.91 1.80 1.72 1.60 1.53 1.52 1.61 1.66 1.64 1.63 1.64 1.62 1.59 1.57 1.47 1.45 1.53 1.42 1.27 1.20 1.16 1.16 1.18 1.22 1.40 1.30 1.27 1.30 1.33 1.30 1.32 1.40 1.58 1.77 1.87 1.93 2.04 2.19
2.22 1.96 1.76 1.63 1.56 1.50 1.48 1.48 1.44 1.39 1.30 1.29 1.30 1.35 1.37 1.35 1.38 1.49 1.61 1.66 1.57 1.47 1.42 1.35 1.21 1.13 1.09 1.09 1.22 1.36 1.25 1.19 1.19 1.16 1.10 1.07 1.10 1.18 1.27 1.40 1.56 1.70 1.84
1.65 1.52 1.37 1.27 1.25 1.28 1.26 1.27 1.24 1.17 1.08 1.02 0.98 1.02 1.07 1.08 1.20 1.37 1.50 1.66 1.73 1.55 1.34 1.29 1.22 1.11 1.07 1.07 1.25 1.28 1.14 1.08 1.04 1.02 0.98 0.94 0.92 0.91 0.94 1.00 1.09 1.17 1.29
1.23 1.16 1.08 1.05 1.01 0.97 0.92 0.90 0.90 0.91 0.93 0.94 0.89 0.87 0.89 0.91 1.02 1.15 1.26 1.42 1.60 1.60 1.42 1.21 1.19 1.16 1.08 1.14 1.38 1.16 1.04 1.06 0.95 0.85 0.82 0.79 0.78 0.77 0.78 0.78 0.80 0.85 0.92
0.91 0.89 0.84 0.80 0.78 0.79 0.74 0.70 0.72 0.78 0.81 0.84 0.85 0.81 0.78 0.79 0.85 0.93 1.01 1.13 1.29 1.43 1.39 1.16 1.04 0.99 0.97 0.97 1.23 1.06 1.06 1.06 0.87 0.74 0.67 0.66 0.66 0.66 0.67 0.68 0.68 0.72 0.78
0.76 0.71 0.68 0.65 0.63 0.65 0.68 0.71 0.73 0.75 0.81 0.80 0.79 0.77 0.74 0.74 0.78 0.80 0.86 0.96 1.08 1.20 1.32 1.23 1.04 0.96 0.94 0.97 1.04 0.95 0.93 0.86 0.78 0.75 0.64 0.60 0.59 0.62 0.59 0.59 0.62 0.65 0.68
0.65 0.63 0.65 0.62 0.57 0.56 0.59 0.64 0.67 0.68 0.76 0.78 0.77 0.77 0.74 0.72 0.76 0.76 0.79 0.85 0.97 1.11 1.23 1.29 1.14 1.03 0.96 0.91 0.90 0.86 0.75 0.71 0.72 0.81 0.68 0.60 0.57 0.55 0.58 0.54 0.52 0.56 0.62
0.57 0.56 0.54 0.53 0.53 0.51 0.51 0.52 0.54 0.57 0.65 0.71 0.73 0.78 0.79 0.78 0.76 0.75 0.78 0.84 0.96 1.07 1.19 1.23 1.16 1.07 1.04 0.98 1.00 0.93 0.83 0.88 0.76 0.75 0.68 0.62 0.58 0.56 0.76 0.79 0.55 0.51 0.55
0.48 0.47 0.43 0.43 0.47 0.46 0.41 0.39 0.42 0.46 0.51 0.55 0.58 0.71 0.77 0.76 0.75 0.79 0.83 0.88 0.94 1.07 1.15 1.17 1.11 1.03 1.02 1.03 1.07 1.10 1.05 1.00 0.88 0.66 0.67 0.63 0.61 0.63 0.97 1.50 0.96 0.65 0.59
0.46 0.46 0.43 0.39 0.41 0.39 0.36 0.37 0.37 0.37 0.42 0.45 0.47 0.56 0.63 0.66 0.68 0.72 0.75 0.82 0.93 1.07 1.14 1.18 1.12 1.06 1.01 1.09 1.12 1.08 1.04 1.05 0.94 0.78 0.76 0.69 0.82 1.12 1.66 2.30 1.82 1.16 0.91
0.54 0.46 0.42 0.39 0.39 0.36 0.37 0.35 0.35 0.37 0.41 0.47 0.53 0.55 0.53 0.56 0.55 0.53 0.60 0.67 0.81 0.99 1.14 1.19 1.15 1.12 1.05 1.08 1.14 1.13 1.12 1.15 1.13 0.86 0.79 0.80 1.02 1.76 2.44 2.79 2.35 1.53 1.18
0.59 0.52 0.43 0.42 0.42 0.36 0.31 0.28 0.29 0.36 0.46 0.52 0.56 0.55 0.46 0.46 0.56 0.58 0.59 0.60 0.71 0.83 1.02 1.20 1.25 1.14 1.10 1.10 1.21 1.26 1.20 1.20 1.18 0.97 0.95 1.01 1.23 2.03 2.34 2.52 2.32 1.60 1.29
0.60 0.54 0.46 0.41 0.41 0.31 0.24 0.23 0.26 0.31 0.37 0.40 0.40 0.45 0.53 0.56 0.50 0.51 0.54 0.64 0.72 0.83 0.91 1.02 1.17 1.08 1.01 1.05 1.14 1.18 1.11 1.08 1.02 0.94 0.96 1.12 1.35 1.89 1.95 2.05 2.10 1.63 1.34
0.55 0.48 0.42 0.40 0.41 0.32 0.22 0.19 0.23 0.30 0.34 0.31 0.28 0.31 0.37 0.41 0.40 0.46 0.57 0.74 0.79 0.89 0.94 1.11 1.12 1.05 1.02 1.02 0.94 0.96 1.12 1.23 1.17 0.94 0.86 1.03 1.26 1.53 1.62 1.72 1.69 1.56 1.43
0.43 0.37 0.35 0.36 0.33 0.30 0.21 0.18 0.19 0.24 0.31 0.28 0.30 0.34 0.32 0.27 0.32 0.42 0.60 0.79 0.92 0.97 1.07 1.27 1.24 1.20 1.12 1.06 0.95 0.95 1.17 1.31 1.28 1.08 0.85 0.91 1.09 1.22 1.45 1.47 1.37 1.32 1.41